Find Starlink 5661

NORAD ID: 55343 Int'l Des: 2023-013 Owner: SPXS Country: US Constellation: starlink operational
LEOCIRCULAR

Live-Position

3D-Globus wird geladen...

Über Starlink 5661

Beschreibung wird geladen...

Nächste Überflüge

Passes for default location (London). Set your location on the main map for personalized predictions.

Höhenverlauf

Loading altitude history...

Zweizeiliger Elementsatz

1 55343U 23013N 26127.63502212 .00000167 00000-0 15911-4 0 9993
2 55343 43.0052 330.0657 0001808 272.4491 87.6153 15.26741187180692
Epoch: 7. Mai 2026 • Age: 11 hours

Aktueller Status

Höhe 485.5 km
Geschwindigkeit 7.63 km/s
Subsatellitenpunkt 20.39°N, 89.39°E
Startdatum 26. Jan. 2023
Alter 3.2 years
Typ internet

Technische Details

Klassifizierung Payload
Masse 305.00 kg
Trockenmasse 290.00 kg
Gesamtmasse 305.00 kg
Länge 0.20 m
Durchmesser 2.80 m
Spannweite 9.00 m
Form Box + pan
Hersteller SPXS
Bus-Typ Starlink
Phasenstatus In Orbit
Besitzer/Staat SPXS/US

Most Searched